• In Portugal
  • List of Countries
  • For 7 days
  • Water Temperature
  • Satellite Maps
  • Weather Map
  • Weather Widgets
  • user-avatar
    Login

    Hourly Weather Hobart

    Today, 28 May, Monday

    Time Temperature Precipitation Wind Pressure Humidity
    00:00 +10°C° 0 mm 3 mps 752 mmHg 86%
    01:00 +10°C° 0 mm 3 mps 752 mmHg 86%
    02:00 +10°C° 0 mm 3 mps 752 mmHg 86%
    03:00 +10°C° 0 mm 3 mps 752 mmHg 87%
    04:00 +10°C° 0 mm 3 mps 751 mmHg 88%
    05:00 +11°C° 0 mm 3 mps 751 mmHg 88%
    06:00 +11°C° 0 mm 3 mps 751 mmHg 88%
    07:00 +11°C° 0 mm 3 mps 751 mmHg 88%
    08:00 +12°C° 0 mm 3 mps 751 mmHg 83%
    09:00 +14°C° 0 mm 3 mps 751 mmHg 77%
    10:00 +16°C° 0 mm 3 mps 751 mmHg 72%
    11:00 +17°C° 0 mm 3 mps 750 mmHg 67%
    12:00 +18°C° 0 mm 4 mps 750 mmHg 62%
    13:00 +20°C° 0 mm 4 mps 749 mmHg 57%
    14:00 +19°C° 0 mm 4 mps 749 mmHg 62%
    15:00 +17°C° 0 mm 4 mps 749 mmHg 67%
    16:00 +15°C° 0 mm 4 mps 748 mmHg 72%
    17:00 +15°C° 0.1 mm 4 mps 748 mmHg 74%
    18:00 +14°C° 0.1 mm 4 mps 748 mmHg 76%
    19:00 +13°C° 0.1 mm 4 mps 748 mmHg 78%
    20:00 +13°C° 0 mm 4 mps 748 mmHg 79%
    21:00 +12°C° 0 mm 4 mps 748 mmHg 79%
    22:00 +12°C° 0 mm 4 mps 747 mmHg 80%
    23:00 +12°C° 0 mm 4 mps 747 mmHg 79%

    Tomorrow, 29 May, Tuesday

    Time Temperature Precipitation Wind Pressure Humidity
    00:00 +12°C° 0 mm 4 mps 746 mmHg 78%
    01:00 +12°C° 0 mm 4 mps 746 mmHg 77%
    02:00 +13°C° 0 mm 4 mps 745 mmHg 75%
    03:00 +13°C° 0 mm 4 mps 744 mmHg 74%
    04:00 +14°C° 0 mm 5 mps 744 mmHg 72%
    05:00 +13°C° 0 mm 5 mps 743 mmHg 75%
    06:00 +13°C° 0 mm 5 mps 743 mmHg 78%
    07:00 +13°C° 0 mm 5 mps 742 mmHg 80%
    08:00 +14°C° 0 mm 5 mps 742 mmHg 77%
    09:00 +15°C° 0 mm 6 mps 742 mmHg 73%
    10:00 +16°C° 0 mm 6 mps 741 mmHg 70%
    11:00 +16°C° 0.3 mm 6 mps 741 mmHg 72%
    12:00 +15°C° 0.3 mm 6 mps 740 mmHg 75%
    13:00 +15°C° 0.3 mm 5 mps 740 mmHg 77%
    14:00 +14°C° 0.3 mm 5 mps 740 mmHg 75%
    15:00 +14°C° 0.3 mm 4 mps 739 mmHg 72%
    16:00 +13°C° 0.3 mm 3 mps 739 mmHg 70%
    17:00 +12°C° 0 mm 3 mps 739 mmHg 74%
    18:00 +10°C° 0 mm 4 mps 738 mmHg 78%
    19:00 +8°C° 0 mm 4 mps 738 mmHg 83%
    20:00 +8°C° 0 mm 4 mps 739 mmHg 84%
    21:00 +7°C° 0 mm 4 mps 739 mmHg 85%
    22:00 +7°C° 0 mm 4 mps 739 mmHg 87%
    23:00 +7°C° 0.2 mm 6 mps 740 mmHg 83%

    Day after tomorrow, 30 May, Wednesday

    Time Temperature Precipitation Wind Pressure Humidity
    00:00 +6°C° 0.2 mm 9 mps 741 mmHg 80%
    01:00 +6°C° 0.2 mm 11 mps 741 mmHg 76%
    02:00 +5°C° 0.1 mm 10 mps 742 mmHg 76%
    03:00 +5°C° 0.1 mm 9 mps 743 mmHg 75%
    04:00 +3°C° 0.1 mm 9 mps 743 mmHg 75%
    05:00 +4°C° 0 mm 8 mps 744 mmHg 75%
    06:00 +4°C° 0 mm 8 mps 745 mmHg 75%
    07:00 +5°C° 0 mm 7 mps 746 mmHg 76%
    08:00 +5°C° 0 mm 7 mps 746 mmHg 73%
    09:00 +6°C° 0 mm 7 mps 746 mmHg 71%
    10:00 +8°C° 0 mm 6 mps 747 mmHg 68%
    11:00 +8°C° 0 mm 6 mps 746 mmHg 65%
    12:00 +9°C° 0 mm 6 mps 746 mmHg 63%
    13:00 +9°C° 0 mm 6 mps 745 mmHg 60%
    14:00 +9°C° 0.3 mm 6 mps 745 mmHg 66%
    15:00 +8°C° 0.3 mm 6 mps 744 mmHg 71%
    16:00 +8°C° 0.3 mm 6 mps 744 mmHg 76%
    17:00 +6°C° 0.2 mm 7 mps 744 mmHg 76%
    18:00 +5°C° 0.2 mm 7 mps 745 mmHg 76%
    19:00 +4°C° 0.2 mm 7 mps 745 mmHg 76%
    20:00 +4°C° 0.1 mm 7 mps 746 mmHg 76%
    21:00 +4°C° 0.1 mm 7 mps 747 mmHg 76%
    22:00 +3°C° 0.1 mm 7 mps 747 mmHg 76%
    23:00 +3°C° 0 mm 7 mps 748 mmHg 77%

    31 May, Thursday

    Time Temperature Precipitation Wind Pressure Humidity
    00:00 +3°C° 0 mm 7 mps 748 mmHg 78%
    01:00 +3°C° 0 mm 6 mps 749 mmHg 80%
    02:00 +3°C° 0.1 mm 6 mps 749 mmHg 81%
    03:00 +3°C° 0.1 mm 6 mps 749 mmHg 83%
    04:00 +3°C° 0.1 mm 6 mps 749 mmHg 84%
    05:00 +3°C° 0.2 mm 6 mps 750 mmHg 85%
    06:00 +3°C° 0.2 mm 6 mps 750 mmHg 86%
    07:00 +4°C° 0.2 mm 6 mps 751 mmHg 86%
    08:00 +4°C° 0 mm 6 mps 751 mmHg 81%
    09:00 +5°C° 0 mm 7 mps 752 mmHg 75%
    10:00 +6°C° 0 mm 7 mps 753 mmHg 70%
    11:00 +8°C° 0 mm 7 mps 753 mmHg 66%
    12:00 +8°C° 0 mm 6 mps 753 mmHg 62%
    13:00 +9°C° 0 mm 6 mps 754 mmHg 59%
    14:00 +9°C° 0 mm 6 mps 754 mmHg 62%
    15:00 +8°C° 0 mm 5 mps 754 mmHg 65%
    16:00 +8°C° 0 mm 5 mps 755 mmHg 68%
    17:00 +6°C° 0 mm 4 mps 755 mmHg 74%
    18:00 +5°C° 0 mm 4 mps 756 mmHg 81%
    19:00 +4°C° 0 mm 3 mps 757 mmHg 87%
    20:00 +4°C° 0 mm 3 mps 757 mmHg 89%
    21:00 +3°C° 0 mm 3 mps 757 mmHg 90%
    22:00 +4°C° 0 mm 2 mps 758 mmHg 91%
    23:00 +3°C° 0 mm 2 mps 758 mmHg 93%

    1 June, Friday

    Time Temperature Precipitation Wind Pressure Humidity
    00:00 +3°C° 0 mm 2 mps 758 mmHg 94%
    01:00 +2°C° 0 mm 2 mps 758 mmHg 95%
    02:00 +2°C° 0 mm 2 mps 758 mmHg 95%
    03:00 +2°C° 0 mm 2 mps 758 mmHg 95%
    04:00 +2°C° 0 mm 2 mps 758 mmHg 94%
    05:00 +2°C° 0 mm 2 mps 758 mmHg 94%
    06:00 +2°C° 0 mm 2 mps 758 mmHg 93%
    07:00 +2°C° 0 mm 2 mps 759 mmHg 92%
    08:00 +4°C° 0 mm 2 mps 759 mmHg 83%
    09:00 +7°C° 0 mm 1 mps 759 mmHg 73%
    10:00 +9°C° 0 mm 1 mps 759 mmHg 64%
    11:00 +10°C° 0 mm 1 mps 759 mmHg 59%
    12:00 +12°C° 0 mm 1 mps 759 mmHg 54%
    13:00 +13°C° 0 mm 1 mps 759 mmHg 50%
    14:00 +12°C° 0 mm 1 mps 759 mmHg 55%
    15:00 +12°C° 0 mm 1 mps 759 mmHg 60%
    16:00 +11°C° 0 mm 1 mps 758 mmHg 65%
    17:00 +9°C° 0 mm 1 mps 759 mmHg 72%
    18:00 +8°C° 0 mm 1 mps 759 mmHg 79%
    19:00 +6°C° 0 mm 1 mps 759 mmHg 86%
    20:00 +6°C° 0 mm 1 mps 759 mmHg 87%
    21:00 +6°C° 0 mm 1 mps 759 mmHg 88%
    22:00 +5°C° 0 mm 1 mps 759 mmHg 90%
    23:00 +5°C° 0 mm 1 mps 759 mmHg 90%

    2 June, Saturday

    Time Temperature Precipitation Wind Pressure Humidity
    00:00 +5°C° 0 mm 1 mps 759 mmHg 91%
    01:00 +5°C° 0 mm 1 mps 759 mmHg 91%
    02:00 +5°C° 0 mm 1 mps 759 mmHg 91%
    03:00 +5°C° 0 mm 1 mps 759 mmHg 91%
    04:00 +5°C° 0 mm 1 mps 759 mmHg 90%
    05:00 +5°C° 0 mm 1 mps 759 mmHg 90%
    06:00 +5°C° 0 mm 1 mps 759 mmHg 89%
    07:00 +5°C° 0 mm 1 mps 759 mmHg 88%
    08:00 +6°C° 0 mm 1 mps 759 mmHg 80%
    09:00 +8°C° 0 mm 1 mps 759 mmHg 71%
    10:00 +10°C° 0 mm 1 mps 759 mmHg 63%
    11:00 +12°C° 0 mm 1 mps 758 mmHg 58%
    12:00 +13°C° 0 mm 1 mps 758 mmHg 52%
    13:00 +15°C° 0 mm 1 mps 758 mmHg 47%
    14:00 +14°C° 0 mm 1 mps 758 mmHg 51%
    15:00 +13°C° 0 mm 1 mps 757 mmHg 56%
    16:00 +12°C° 0 mm 1 mps 757 mmHg 61%
    17:00 +10°C° 0 mm 1 mps 757 mmHg 67%
    18:00 +9°C° 0 mm 1 mps 758 mmHg 72%
    19:00 +7°C° 0 mm 1 mps 758 mmHg 78%
    20:00 +7°C° 0 mm 1 mps 758 mmHg 81%
    21:00 +7°C° 0 mm 1 mps 758 mmHg 83%
    22:00 +6°C° 0 mm 1 mps 758 mmHg 86%
    23:00 +6°C° 0 mm 1 mps 757 mmHg 88%
    Show more